Voltar ao catálogo

STARLINK-37836

AtivoComunicaçõesSSO
NORAD 69425·PAYLOAD·🇺🇸 United States

Lançado Jun 7, 2026 de Vandenberg Space Force Base

Loading…

Próximas Passagens (próximas 24 horas)

TLE

AtualizadoSource: CelesTrak SupGP

Época: Sep 15, 2026, 03:17 UTC

1 69425C 26126F   26258.13729167  .00006334  00000+0  19656-3 0  2585
2 69425  97.2849 119.4169 0001883  96.9057 146.7766 15.33444864    14

Acompanhe STARLINK-37836 em tempo real com AllMySat

Download on the App Store